RH
80 81 82 83 83 84 91 98 100 78 68 99 95 90 63 57 45 37 38 38 40 44 42 44 46 53 38 28 29 28 31 40 45 34 23 18 22 29 33 68 54 61 66 57
81 82 83 84 85 88 97 99 98 87 81 97 96 70 64 61 61 51 45 47 37 37 41 52 50 56 36 32 39 41 35 46 53 39 28 23 25 26 25 35 48 57 82 64
82 84 84 84 86 90 98 100 99 99 98 86 81 87 72 71 54 57 49 45 37 41 47 41 58 76 54 39 40 67 48 44 42 52 39 33 36 26 25 33 62 56 57 44
82 82 83 84 85 90 98 100 98 87 98 97 82 69 63 70 64 48 44 49 49 49 49 51 61 71 80 48 60 53 46 57 42 36 27 26 28 27 26 28 35 42 41 37
83 84 83 84 85 88 99 100 97 78 74 80 93 84 75 74 54 48 46 51 43 44 52 49 62 77 87 84 54 59 55 56 54 46 36 29 29 27 26 24 25 25 27 31
85 85 85 85 87 92 98 97 81 76 81 84 93 85 71 68 55 48 36 37 41 44 43 46 59 83 86 82 64 66 64 73 60 64 42 41 56 34 27 28 24 27 32 26
84 84 87 89 89 92 96 95 80 93 94 79 83 66 69 65 58 57 44 37 38 33 38 72 70 74 79 70 61 56 73 76 77 85 70 73 40 26 24 27 25 24 26 27
83 84 84 86 83 82 96 97 83 90 95 80 74 70 64 60 56 56 48 38 36 32 68 82 92 93 94 75 64 72 65 77 92 97 76 58 45 32 31 31 33 26 28 27
84 85 85 82 80 81 93 93 95 75 88 77 62 65 62 65 63 58 51 41 40 52 57 61 91 93 100 78 62 54 63 72 88 96 97 91 58 37 28 31 50 29 32 32
83 83 84 84 82 81 90 93 90 97 97 66 53 83 74 54 55 61 52 55 58 63 89 95 94 95 70 95 78 83 92 93 96 98 99 84 42 34 35 51 55 33 33 34
83 82 83 83 83 81 89 90 90 97 98 79 53 68 86 72 62 73 58 63 68 93 95 95 97 95 77 72 53 76 86 90 98 94 97 96 39 38 44 45 40 37 41 40
88 88 86 83 83 81 83 94 89 90 99 88 84 66 68 62 63 65 63 55 58 85 92 93 86 90 88 66 78 53 89 80 87 73 76 61 57 59 59 55 50 47 43 41
88 88 88 88 84 82 85 92 90 96 99 98 90 81 50 58 72 79 82 74 48 76 73 90 88 79 74 87 71 52 54 53 63 66 48 40 53 59 46 45 49 42 41 41
88 89 90 90 88 85 84 96 88 93 98 100 90 67 67 62 78 74 75 68 74 80 88 96 98 93 60 72 60 64 47 50 54 60 49 44 41 44 37 38 38 45 40 39
86 88 89 90 91 86 91 93 89 88 96 96 86 68 61 63 65 65 76 73 84 95 96 99 95 87 82 75 66 67 40 45 65 72 47 47 44 49 48 39 41 44 47 41
87 87 86 89 91 90 96 99 92 83 93 87 97 67 68 67 59 63 71 76 85 95 95 97 89 70 76 96 81 48 35 33 35 40 42 54 58 58 53 56 59 53 50 46
86 88 89 93 92 94 97 96 93 82 94 90 96 90 74 73 62 73 80 73 89 92 94 97 91 89 89 98 83 46 42 36 35 53 51 61 61 62 55 51 49 53 52 50
90 92 91 90 85 94 98 92 83 88 90 88 99 97 95 89 89 89 81 87 92 94 93 94 94 80 84 90 57 46 39 37 45 56 58 60 57 54 52 52 55 56 56 56
93 93 92 91 94 98 99 85 86 89 88 98 96 95 95 95 98 91 83 87 99 94 98 96 90 99 93 71 50 46 44 44 42 40 57 56 59 58 57 57 58 61 68 69
82 81 93 100 99 83 79 88 95 94 93 97 98 94 98 95 99 99 92 94 96 99 96 89 96 99 67 66 74 74 65 64 61 68 70 68 69 73 76 79 77 76 80 81
95 98 99 96 90 94 99 100 98 99 99 97 93 92 97 96 98 99 99 99 99 99 96 88 99 97 86 82 74 70 65 66 71 72 74 70 76 81 88 90 89 89 89 92
89 90 95 96 96 100 98 99 99 97 93 93 96 95 96 99 97 99 100 98 99 98 90 95 98 99 85 80 80 79 81 84 84 81 85 84 85 88 91 92 93 92 90 90
84 94 100 94 99 90 92 92 97 88 95 97 99 99 99 100 100 100 100 99 97 97 98 98 99 97 90 84 84 87 82 84 86 86 85 86 90 88 90 94 91 90 93 95
98 94 94 98 98 99 99 99 99 100 100 98 98 100 99 100 99 99 99 98 99 99 97 100 99 97 96 91 88 89 92 91 91 91 90 91 91 94 93 93 90 90 94 96
96 92 98 98 100 99 98 98 99 97 98 100 99 99 99 99 99 99 99 99 96 98 99 99 97 95 93 94 93 92 92 93 92 89 92 93 91 92 95 96 95 94 95 95
89 91 96 95 95 95 95 97 98 94 97 99 100 100 99 99 100 99 98 97 97 98 98 97 93 96 96 96 94 95 94 93 94 94 95 95 95 94 96 95 94 96 94 94
90 98 94 98 98 98 98 98 96 93 99 100 100 98 98 99 98 95 96 98 98 96 97 96 96 96 96 96 96 95 94 94 95 95 94 95 95 93 88 92 89 82 84 90
Wind_Speed
27 26 26 25 23 20 13 4 6 7 14 12 8 19 12 9 15 12 17 16 24 20 19 18 16 21 18 7 6 20 10 5 11 18 22 14 16 12 10 6 6 4 6 7
29 28 27 26 24 23 5 4 4 8 14 15 16 12 19 24 21 20 11 13 12 20 20 13 12 20 11 1 3 5 5 2 7 15 12 11 21 9 13 8 5 6 7 7
30 29 27 26 25 26 12 4 6 6 10 5 18 17 19 22 16 26 22 24 16 18 20 14 7 19 7 6 4 6 8 6 15 14 12 4 5 8 8 8 5 5 6 5
30 29 29 28 27 27 13 7 6 6 11 17 16 18 10 22 23 20 10 17 22 20 15 13 8 5 12 8 6 3 2 5 8 11 20 18 19 12 14 11 8 11 10 15
30 30 29 27 27 28 13 7 7 6 6 16 22 22 19 21 17 22 17 25 17 13 18 14 12 5 5 17 3 3 5 3 4 11 14 15 9 19 11 14 11 7 8 10
30 29 29 29 28 26 10 7 5 3 11 15 19 21 24 17 17 20 20 19 16 18 23 11 8 1 17 21 8 2 5 4 2 8 10 12 9 15 11 17 13 10 9 9
28 27 28 28 29 30 9 5 6 7 8 18 18 21 23 26 21 21 20 15 18 15 6 4 6 6 20 19 5 5 5 3 2 3 1 14 6 8 6 12 9 3 1 2
28 28 28 28 29 30 11 4 8 8 12 8 19 20 19 22 24 27 21 20 9 7 7 4 4 4 6 8 6 5 7 3 4 3 6 6 13 3 5 6 7 4 2 2
30 30 30 31 31 31 15 13 7 10 11 19 10 20 20 15 17 18 21 16 7 5 1 6 5 6 4 5 4 5 7 8 5 2 1 8 2 8 2 2 5 5 1 4
31 31 32 33 33 32 14 7 16 7 9 11 19 8 14 15 11 9 10 7 5 5 4 3 5 5 8 6 8 7 5 3 4 1 4 8 6 8 3 5 9 6 2 3
34 34 34 34 34 33 20 13 12 12 5 4 18 9 5 2 9 7 5 2 3 2 4 6 6 4 7 6 6 8 6 7 3 4 5 6 9 3 4 5 7 4 3 3
34 34 35 36 35 34 29 9 13 12 6 3 3 11 16 13 8 3 3 7 3 3 3 3 3 3 2 7 3 6 6 8 8 11 8 8 3 2 5 7 6 3 3 5
28 29 33 35 35 36 30 10 11 11 5 2 3 8 21 12 4 8 5 3 7 5 5 4 5 5 4 4 7 2 4 5 3 3 7 11 5 5 5 7 11 8 5 7
27 27 28 31 35 36 30 9 10 11 3 3 6 6 9 9 11 14 5 5 3 4 3 2 4 2 3 5 5 5 7 11 11 7 8 4 9 9 7 11 13 8 3 3
24 26 27 30 33 34 20 8 10 10 4 5 7 3 9 15 10 3 1 4 3 3 3 2 3 3 4 3 1 5 6 7 7 6 9 8 5 2 7 16 11 9 7 5
24 26 27 29 32 34 10 6 12 12 2 2 4 1 6 7 8 6 1 2 2 3 4 3 4 8 4 3 4 6 13 10 4 3 2 3 7 7 6 7 3 7 6 5
25 29 29 32 34 15 6 5 13 17 3 3 3 2 2 1 5 3 2 1 2 3 3 3 0 4 5 2 3 5 5 5 5 4 6 5 2 5 7 8 8 8 10 10
30 31 32 34 28 13 5 10 24 8 4 4 4 2 4 6 3 2 4 2 2 1 3 2 4 4 5 5 6 9 10 8 2 3 6 7 8 8 7 7 10 12 12 13
35 37 33 16 4 3 5 21 12 3 4 6 3 5 5 3 2 1 2 4 1 3 3 3 5 6 6 8 5 6 7 6 7 5 8 8 11 9 8 11 10 13 13 16
22 7 7 4 5 18 8 6 5 6 4 3 3 3 4 4 2 1 1 3 4 4 6 5 5 4 10 2 6 6 5 7 6 12 7 10 9 12 14 16 15 16 15 15
5 5 5 6 7 4 4 3 3 1 1 2 3 4 5 3 4 3 1 3 4 4 4 7 3 4 3 7 12 12 13 17 17 17 16 14 15 13 15 16 16 16 17 17
9 10 4 2 3 3 5 3 2 3 6 4 5 4 4 2 2 3 3 4 3 7 6 6 5 2 7 13 16 16 17 18 20 20 20 18 19 16 18 16 16 17 17 16
3 4 5 2 3 5 5 5 2 3 2 3 3 4 4 2 1 2 3 6 7 1 3 5 3 5 9 10 10 15 16 18 19 20 19 20 20 18 17 18 15 17 17 14
4 4 5 3 3 5 4 3 2 2 3 4 5 3 3 3 4 3 5 3 1 3 3 4 3 6 8 9 9 13 15 15 18 18 18 19 19 17 16 15 14 16 16 14
6 5 5 5 3 5 5 4 3 5 4 3 3 2 2 3 3 4 2 2 3 2 3 3 5 7 8 9 10 12 14 14 15 16 17 18 18 18 18 15 14 17 16 16
5 8 4 5 4 6 5 6 4 5 5 3 1 2 3 2 1 2 5 3 4 3 4 5 8 10 9 10 11 12 13 16 16 16 16 16 16 18 18 16 15 15 15 15
5 4 4 5 4 4 2 3 4 4 3 2 2 4 4 3 3 4 5 4 4 6 6 6 10 12 12 12 13 14 16 17 17 17 17 17 16 17 17 18 15 15 16 15
Wind_Direction
255 251 248 242 235 226 217 228 225 193 162 207 218 230 221 262 264 245 254 263 276 278 294 303 287 228 251 220 178 202 188 165 225 256 275 233 194 194 188 147 249 189 143 263
253 249 244 238 229 206 189 218 188 216 178 214 221 234 236 243 256 253 250 253 256 262 276 297 306 292 217 120 94 169 153 137 278 275 284 266 196 183 198 190 157 194 136 253
250 245 239 233 224 211 193 151 191 177 211 221 219 223 234 242 226 246 259 265 280 268 281 281 277 316 294 167 110 106 117 178 226 232 243 210 278 206 216 192 173 224 195 221
248 242 238 231 221 209 194 180 215 189 199 207 218 218 227 226 243 230 219 257 246 262 269 289 271 235 319 309 107 47 131 219 245 253 215 242 238 208 222 227 206 206 248 271
245 242 233 227 219 204 202 179 188 192 209 194 215 219 220 232 253 227 234 238 242 255 251 241 281 332 345 272 140 123 6 274 309 247 262 243 218 280 226 224 234 241 206 229
243 238 235 224 211 197 203 192 224 220 203 191 206 213 222 230 239 260 237 241 244 235 250 270 188 225 300 235 244 151 91 331 205 237 245 279 286 215 229 260 238 199 226 232
237 232 229 223 215 205 210 177 159 208 214 210 205 202 211 223 234 242 259 250 234 246 224 53 22 10 310 296 244 129 111 333 64 279 108 239 231 162 201 232 240 201 163 317
232 227 221 211 212 208 205 190 197 190 224 216 217 202 203 217 227 244 249 255 262 206 169 153 347 348 279 274 200 141 109 89 63 190 210 324 299 214 187 202 258 194 205 291
229 224 217 210 209 207 201 208 238 202 205 216 205 206 205 209 218 236 249 265 247 62 144 233 191 238 279 206 166 163 132 101 119 26 330 213 197 246 341 67 271 280 263 298
227 221 216 211 208 205 199 206 191 233 209 216 205 207 220 214 220 223 231 222 236 129 136 167 167 226 156 281 159 158 116 73 147 179 269 292 246 220 123 185 233 253 152 254
224 217 212 207 204 203 194 202 183 219 196 200 207 170 215 253 215 219 216 206 263 84 150 172 194 162 203 186 231 164 148 142 174 160 234 224 273 33 202 217 258 232 296 288
225 216 209 203 198 196 190 204 190 195 247 202 102 189 195 236 274 250 247 197 195 158 152 214 168 205 186 170 237 179 176 173 177 182 199 234 313 288 103 40 280 319 275 96
208 207 205 200 194 190 188 185 167 187 204 124 142 211 207 218 255 263 198 306 196 176 173 221 219 190 159 163 220 263 253 177 197 90 255 237 244 295 3 344 310 312 351 85
198 195 193 193 187 184 181 179 162 180 134 158 196 253 187 155 269 258 221 216 52 111 104 141 270 185 177 206 215 179 198 175 199 218 258 181 205 191 201 305 284 257 223 150
187 186 184 182 179 173 168 168 177 173 160 181 141 171 219 185 193 178 145 78 81 108 67 122 236 245 5 272 202 219 230 200 176 218 216 178 213 183 205 213 245 269 221 196
174 172 169 166 163 155 148 154 191 184 234 60 112 257 171 173 164 141 158 151 106 100 136 223 222 272 202 268 227 201 238 247 183 217 333 150 126 92 81 94 29 18 75 95
152 151 149 143 142 145 168 187 149 170 226 78 80 129 72 73 147 130 105 78 165 124 161 206 208 312 325 205 220 285 305 304 340 33 126 80 13 113 82 79 55 57 62 54
127 131 134 130 127 113 109 127 135 160 74 42 116 193 67 10 144 174 159 158 129 195 211 216 195 284 229 254 220 234 268 286 306 67 65 103 114 81 73 77 79 69 63 70
106 110 116 115 79 68 95 87 74 110 157 155 149 135 161 354 37 323 137 138 106 217 193 217 98 274 192 221 224 222 232 239 246 164 122 109 103 99 80 82 80 86 70 68
112 89 51 68 93 138 99 42 37 9 341 66 89 107 125 124 117 336 94 169 204 197 228 148 172 254 271 331 38 25 69 59 106 120 120 110 100 80 63 66 69 79 82 84
50 52 63 96 6 66 59 77 92 118 38 187 194 130 138 215 127 131 212 239 187 213 217 144 190 228 328 22 64 37 46 64 64 72 58 72 97 101 92 77 75 80 83 82
105 103 108 96 57 77 97 106 123 185 199 186 146 173 113 158 151 121 217 249 179 214 159 129 183 105 28 58 63 56 52 60 61 60 68 68 75 82 90 89 88 85 87 87
131 69 67 38 350 78 111 163 244 177 168 172 122 115 115 99 141 183 205 217 206 222 127 155 100 85 62 56 66 68 64 67 71 72 73 74 76 75 82 90 86 91 88 90
64 66 76 45 52 49 27 11 54 9 25 106 111 98 125 145 166 203 231 239 352 26 114 75 62 69 63 64 73 83 82 81 83 83 83 82 83 81 78 81 90 91 87 88
48 27 46 51 43 49 10 334 50 359 311 22 63 77 153 169 221 191 187 172 174 16 105 99 103 92 88 87 88 91 93 92 91 91 89 89 88 86 83 78 82 85 89 87
56 38 29 347 51 27 19 353 355 356 339 315 124 147 199 164 307 61 16 35 55 47 77 97 102 94 94 96 95 93 97 95 93 89 89 89 87 89 89 85 80 81 83 82
49 53 15 356 67 61 329 303 314 302 298 359 1 52 14 317 72 61 14 21 82 96 94 94 97 102 103 103 100 99 96 94 92 93 92 92 93 94 91 90 88 85 80 77